Location: Moscow Pond
(43.6842°N, 73.2366°W)
Time: 21:32:06
(UTC+00:00)

Cosmos 2278 Rocket - Pass Details

Date: 08 November 2025
Orbit: 841 x 843 km, 71.0° (Epoch: 05 December)

Event Time Altitude Azimuth Distance (km) Brightness Sun altitude
Exits shadow 08:35:17 12° 3° (N) 2,333 4.6 -33.3°
Maximum altitude 08:39:04 22° 49° (NE) 1,777 4.3 -32.6°
Drops below altitude 10° 08:43:21 10° 99° (E) 2,459 5.4 -31.8°
Sets 08:46:22 0° 114° (ESE) 3,390 6.2 -31.3°
